Flag for Colombia Weather past 2 weeks in Barranquilla, Colombia

Now
90 °F

Scattered clouds.


Feels Like: 105 °F
Forecast: 79 / 88 °F
Wind: 5 mph from East

Location: Barranquilla / Ernestocortissoz

Current Time: Dec 22, 2014 at 11:37:57 AM

Latest Report: Dec 22, 2014 at 11:00 AM


Visibility: N/A

Pressure: 29.85 "Hg

Humidity: 71%

Dew point: 79 °F

Location of BarranquillaLocation

Historic Weather in Barranquilla — Graph

°F

Barranquilla temperature yesterday

Maximum temperature yesterday: 91 °F (at 12:00 PM)
Minimum temperature yesterday: 79 °F (at 4:00 AM)
Average temperature yesterday: 83 °F

Past Weeks' High & Low Weather Summary

 TemperatureHumidityPressure
High93 °F (Dec 17, 1:00 PM)100% (Dec 10, 5:00 AM)29.99 "Hg (Dec 10, 5:00 AM)
Low73 °F (Dec 15, 5:00 AM)63% (Dec 8, 1:00 PM)29.73 "Hg (Dec 9, 4:00 PM)
Average82 °F86%29.85 "Hg
* Reported Dec 7 10:00 AM — Dec 22 10:00 AM, Barranquilla, Weather by CustomWeather, © 2014

Note: Actual official high and low records may vary slightly from our data, if they occured in-between our weather recording intervals... More about our weather records

Advertising

Barranquilla weather history for previous 24 hours

 ConditionsComfort  
Time TempWeatherWind HumidityBarometerVisibility
10:00 AM
Dec 22
84 °FScattered clouds.3 mph89%29.87 "Hg5 mi
9:00 AM79 °FSnow. Partly sunny.3 mph100%29.88 "Hg4 mi
8:00 AM77 °FScattered clouds.No wind100%29.86 "Hg4 mi
7:00 AM75 °FMild.No wind100%29.83 "HgN/A
6:00 AM75 °FFog.5 mph94%29.81 "Hg2 mi
5:00 AM77 °FClear.5 mph94%29.79 "Hg10 mi
4:00 AM79 °FClear.5 mph84%29.78 "Hg10 mi
3:00 AM79 °FClear.7 mph84%29.78 "Hg10 mi
2:00 AM79 °FClear.6 mph84%29.79 "Hg10 mi
1:00 AM81 °FClear.5 mph84%29.83 "Hg10 mi
12:00 AM81 °FClear.5 mph89%29.84 "Hg10 mi
11:00 PM
Dec 21
81 °FClear.6 mph89%29.85 "Hg10 mi
10:00 PM81 °FClear.7 mph89%29.85 "Hg10 mi
9:00 PM81 °FClear.6 mph89%29.85 "Hg10 mi
8:00 PM81 °FClear.7 mph89%29.84 "Hg10 mi
7:00 PM81 °FClear.8 mph89%29.82 "Hg10 mi
6:00 PM82 °FClear.12 mph89%29.81 "Hg10 mi
5:00 PM84 °FSunny.9 mph79%29.80 "Hg10 mi
4:00 PM88 °FSunny.6 mph70%29.80 "Hg10 mi
3:00 PM90 °FPassing clouds.9 mph63%29.80 "HgN/A
2:00 PM90 °FPassing clouds.10 mph67%29.81 "HgN/A
1:00 PM91 °FPassing clouds.3 mph67%29.83 "HgN/A
12:00 PM91 °FPassing clouds.3 mph67%29.87 "HgN/A
11:00 AM90 °FPassing clouds.3 mph71%29.89 "HgN/A
Weather by CustomWeather, © 2014

See weather overviewHow to use our weather pages